timestamp,surface_pressure_avg,surface_temp_avg,battery_voltage,lat,long
2018-09-25 00:00:00+00:00,362.2279,12.02,13.05,47.84626,-54.09684
2018-09-25 00:10:00+00:00,362.2145,12.08,12.97,47.84626,-54.09684
2018-09-25 00:20:00+00:00,359.218,12.09,13.05,47.84626,-54.09684
2018-09-25 00:30:00+00:00,354.3296,12.06,13.05,47.84626,-54.09684
2018-09-25 00:40:00+00:00,350.2562,12.0,13.05,47.84626,-54.09684
2018-09-25 00:50:00+00:00,344.363,12.0,13.05,47.84626,-54.09684
2018-09-25 01:00:00+00:00,340.368,12.0,13.05,47.84626,-54.09684
2018-09-25 01:10:00+00:00,334.433,12.0,12.97,47.84626,-54.09684
2018-09-25 01:20:00+00:00,328.8263,12.0,13.05,47.84626,-54.09684
2018-09-25 01:30:00+00:00,324.8113,12.0,13.05,47.84626,-54.09684
2018-09-25 01:40:00+00:00,318.218,12.0,13.05,47.84626,-54.09684
2018-09-25 01:50:00+00:00,312.093,12.0,13.05,47.84626,-54.09684
2018-09-25 02:00:00+00:00,304.978,12.0,13.05,47.84626,-54.09684
2018-09-25 02:10:00+00:00,298.4863,12.0,12.97,47.84626,-54.09684
2018-09-25 02:20:00+00:00,291.7147,12.0,13.05,47.84626,-54.09684
2018-09-25 02:30:00+00:00,283.1964,12.0,13.05,47.84626,-54.09684
2018-09-25 02:40:00+00:00,276.2481,12.0,13.05,47.84626,-54.09684
2018-09-25 02:50:00+00:00,270.0297,11.99,13.05,47.84626,-54.09684
2018-09-25 03:00:00+00:00,262.0081,11.99,12.97,47.84626,-54.09684
2018-09-25 03:10:00+00:00,251.6881,11.98,12.89,47.84626,-54.09684
2018-09-25 03:20:00+00:00,242.0881,11.94,12.97,47.84626,-54.09684
2018-09-25 03:30:00+00:00,234.2047,11.9,13.05,47.84626,-54.09684
2018-09-25 03:40:00+00:00,227.9681,11.9,13.05,47.84626,-54.09684
2018-09-25 03:50:00+00:00,222.7564,11.94,13.05,47.84626,-54.09684
2018-09-25 04:00:00+00:00,214.4747,11.96,12.97,47.84626,-54.09684
2018-09-25 04:10:00+00:00,205.8798,11.92,12.89,47.84626,-54.09684
2018-09-25 04:20:00+00:00,203.4199,11.9,12.97,47.84626,-54.09684
2018-09-25 04:30:00+00:00,203.9516,11.9,12.97,47.84626,-54.09684
2018-09-25 04:40:00+00:00,200.1364,11.9,13.05,47.84626,-54.09684
2018-09-25 04:50:00+00:00,193.9532,11.9,13.05,47.84626,-54.09684
2018-09-25 05:00:00+00:00,192.7381,11.9,12.97,47.84626,-54.09684
2018-09-25 05:10:00+00:00,194.1931,11.9,12.89,47.84626,-54.09684
2018-09-25 05:20:00+00:00,193.5448,11.9,12.97,47.84626,-54.09684
2018-09-25 05:30:00+00:00,193.6082,11.9,12.97,47.84626,-54.09684
2018-09-25 05:40:00+00:00,196.8148,11.9,12.97,47.84626,-54.09684
2018-09-25 05:50:00+00:00,198.8848,11.9,13.05,47.84626,-54.09684
2018-09-25 06:00:00+00:00,198.3548,11.9,12.97,47.84626,-54.09684
2018-09-25 06:10:00+00:00,201.7814,11.87,12.89,47.84626,-54.09684
2018-09-25 06:20:00+00:00,206.6498,11.8,12.97,47.84626,-54.09684
2018-09-25 06:30:00+00:00,208.1797,11.8,12.97,47.84626,-54.09684
2018-09-25 06:40:00+00:00,210.8948,11.8,12.97,47.84626,-54.09684
2018-09-25 06:50:00+00:00,214.0031,11.8,12.97,47.84626,-54.09684
2018-09-25 07:00:00+00:00,216.4583,11.8,12.97,47.84626,-54.09684
2018-09-25 07:10:00+00:00,219.1931,11.78,12.81,47.84626,-54.09684
2018-09-25 07:20:00+00:00,222.6664,11.72,12.97,47.84626,-54.09684
2018-09-25 07:30:00+00:00,226.6431,11.7,12.97,47.84626,-54.09684
2018-09-25 07:40:00+00:00,231.5414,11.7,12.97,47.84626,-54.09684
2018-09-25 07:50:00+00:00,238.9764,11.69,12.97,47.84626,-54.09684
2018-09-25 08:00:00+00:00,245.2364,11.69,12.89,47.84626,-54.09684
2018-09-25 08:10:00+00:00,247.9414,11.68,12.81,47.84626,-54.09684
2018-09-25 08:20:00+00:00,251.7831,11.64,12.89,47.84626,-54.09684
2018-09-25 08:30:00+00:00,259.4897,11.6,12.97,47.84626,-54.09684
2018-09-25 08:40:00+00:00,267.2481,11.6,12.97,47.84626,-54.09684
2018-09-25 08:50:00+00:00,271.8448,11.6,12.97,47.84626,-54.09684
2018-09-25 09:00:00+00:00,276.3898,11.6,12.89,47.84626,-54.09684
2018-09-25 09:10:00+00:00,282.0747,11.4,12.81,47.84626,-54.09684
2018-09-25 09:20:00+00:00,286.8314,11.4,12.89,47.84626,-54.09684
2018-09-25 09:30:00+00:00,290.6647,11.44,12.89,47.84626,-54.09684
2018-09-25 09:40:00+00:00,295.2964,11.46,12.97,47.84626,-54.09684
2018-09-25 09:50:00+00:00,299.9797,11.46,13.21,47.84626,-54.09684
2018-09-25 10:00:00+00:00,302.9947,11.49,13.53,47.84626,-54.09684
2018-09-25 10:10:00+00:00,306.8096,11.48,13.68,47.84626,-54.09684
2018-09-25 10:20:00+00:00,313.893,11.45,13.68,47.84626,-54.09684
2018-09-25 10:30:00+00:00,319.443,11.4,14.32,47.84626,-54.09684
2018-09-25 10:40:00+00:00,323.9846,11.4,15.27,47.84626,-54.09684
2018-09-25 10:50:00+00:00,329.1896,11.4,16.23,47.84626,-54.09684
2018-09-25 11:00:00+00:00,336.458,11.4,15.75,47.84626,-54.09684
2018-09-25 11:10:00+00:00,340.5546,11.4,14.96,47.84626,-54.09684
2018-09-25 11:20:00+00:00,340.348,11.4,16.23,47.84626,-54.09684
2018-09-25 11:30:00+00:00,342.8314,11.4,15.51,47.84626,-54.09684
2018-09-25 11:40:00+00:00,344.1478,11.4,15.27,47.84626,-54.09684
2018-09-25 11:50:00+00:00,344.4913,11.32,15.11,47.84626,-54.09684
2018-09-25 12:00:00+00:00,344.7729,11.3,14.88,47.84626,-54.09684
2018-09-25 12:10:00+00:00,344.448,11.33,14.64,47.84626,-54.09684
2018-09-25 12:20:00+00:00,343.813,11.36,14.72,47.84626,-54.09684
2018-09-25 12:30:00+00:00,344.3645,11.38,15.2,47.84626,-54.09684
2018-09-25 12:40:00+00:00,342.4764,11.39,14.96,47.84626,-54.09684
2018-09-25 12:50:00+00:00,335.5013,11.39,14.96,47.84626,-54.09684
2018-09-25 13:00:00+00:00,330.563,11.4,14.8,47.84626,-54.09684
2018-09-25 13:10:00+00:00,328.6147,11.4,14.88,47.84626,-54.09684
2018-09-25 13:20:00+00:00,323.9747,11.4,14.72,47.84626,-54.09684
2018-09-25 13:30:00+00:00,316.048,11.4,14.96,47.84626,-54.09684
2018-09-25 13:40:00+00:00,311.5697,11.4,14.96,47.84626,-54.09684
2018-09-25 13:50:00+00:00,308.4263,11.4,14.96,47.84626,-54.09684
2018-09-25 14:00:00+00:00,299.698,11.4,14.8,47.84626,-54.09684
2018-09-25 14:10:00+00:00,290.2897,11.4,14.56,47.84626,-54.09684
2018-09-25 14:20:00+00:00,287.5881,11.4,14.88,47.84626,-54.09684
2018-09-25 14:30:00+00:00,282.7513,11.4,14.64,47.84626,-54.09684
2018-09-25 14:40:00+00:00,270.9081,11.41,14.8,47.84626,-54.09684
2018-09-25 14:50:00+00:00,262.7698,11.44,14.8,47.84626,-54.09684
2018-09-25 15:00:00+00:00,257.0031,11.42,14.56,47.84626,-54.09684
2018-09-25 15:10:00+00:00,247.5431,11.4,14.72,47.84626,-54.09684
2018-09-25 15:20:00+00:00,236.0565,11.4,14.72,47.84626,-54.09684
2018-09-25 15:30:00+00:00,228.7081,11.4,14.56,47.84626,-54.09684
2018-09-25 15:40:00+00:00,220.5015,11.4,14.72,47.84626,-54.09684
2018-09-25 15:50:00+00:00,211.0081,11.48,14.72,47.84626,-54.09684
2018-09-25 16:00:00+00:00,202.6714,11.5,14.64,47.84626,-54.09684
2018-09-25 16:10:00+00:00,193.6131,11.52,14.64,47.84626,-54.09684
2018-09-25 16:20:00+00:00,185.2865,11.59,14.72,47.84626,-54.09684
2018-09-25 16:30:00+00:00,181.5831,11.59,14.48,47.84626,-54.09684
2018-09-25 16:40:00+00:00,178.9348,11.59,14.64,47.84626,-54.09684
2018-09-25 16:50:00+00:00,175.1531,11.5,14.64,47.84626,-54.09684
2018-09-25 17:00:00+00:00,170.6865,11.57,14.56,47.84626,-54.09684
2018-09-25 17:10:00+00:00,166.7298,11.6,14.56,47.84626,-54.09684
2018-09-25 17:20:00+00:00,162.6215,11.6,14.56,47.84626,-54.09684
2018-09-25 17:30:00+00:00,159.6298,11.61,14.4,47.84626,-54.09684
2018-09-25 17:40:00+00:00,159.9982,11.7,14.56,47.84626,-54.09684
2018-09-25 17:50:00+00:00,160.9065,11.7,14.56,47.84626,-54.09684
2018-09-25 18:00:00+00:00,161.5399,11.68,14.48,47.84626,-54.09684
2018-09-25 18:10:00+00:00,161.7432,11.66,14.32,47.84626,-54.09684
2018-09-25 18:20:00+00:00,164.1982,11.68,14.4,47.84626,-54.09684
2018-09-25 18:30:00+00:00,167.9231,11.7,14.4,47.84626,-54.09684
2018-09-25 18:40:00+00:00,169.8982,11.7,14.4,47.84626,-54.09684
2018-09-25 18:50:00+00:00,173.2148,11.7,14.32,47.84626,-54.09684
2018-09-25 19:00:00+00:00,179.3665,11.6,14.24,47.84626,-54.09684
2018-09-25 19:10:00+00:00,184.2682,11.6,14.08,47.84626,-54.09684
2018-09-25 19:20:00+00:00,189.3098,11.63,14.08,47.84626,-54.09684
2018-09-25 19:30:00+00:00,195.7981,11.62,14.08,47.84626,-54.09684
2018-09-25 19:40:00+00:00,200.2164,11.7,14.08,47.84626,-54.09684
2018-09-25 19:50:00+00:00,206.1481,11.6,14.08,47.84626,-54.09684
2018-09-25 20:00:00+00:00,213.8031,11.6,14.0,47.84626,-54.09684
2018-09-25 20:10:00+00:00,220.4081,11.6,13.84,47.84626,-54.09684
2018-09-25 20:20:00+00:00,227.4364,11.6,13.84,47.84626,-54.09684
2018-09-25 20:30:00+00:00,234.7631,11.6,13.84,47.84626,-54.09684
2018-09-25 20:40:00+00:00,242.9197,11.6,13.84,47.84626,-54.09684
2018-09-25 20:50:00+00:00,250.6181,11.6,13.76,47.84626,-54.09684
2018-09-25 21:00:00+00:00,257.5714,11.6,13.68,47.84626,-54.09684
2018-09-25 21:10:00+00:00,264.5997,11.58,13.53,47.84626,-54.09684
2018-09-25 21:20:00+00:00,270.8731,11.57,13.53,47.84626,-54.09684
2018-09-25 21:30:00+00:00,277.228,11.56,13.44,47.84626,-54.09684
2018-09-25 21:40:00+00:00,283.0064,11.53,13.44,47.84626,-54.09684
2018-09-25 21:50:00+00:00,288.3663,11.5,13.44,47.84626,-54.09684
2018-09-25 22:00:00+00:00,296.358,11.5,13.37,47.84626,-54.09684
2018-09-25 22:10:00+00:00,304.4846,11.5,13.21,47.84626,-54.09684
2018-09-25 22:20:00+00:00,310.1997,11.5,13.21,47.84626,-54.09684
2018-09-25 22:30:00+00:00,316.8363,11.5,13.21,47.84626,-54.09684
2018-09-25 22:40:00+00:00,325.8397,11.5,13.21,47.84626,-54.09684
2018-09-25 22:50:00+00:00,332.3564,11.46,13.21,47.84626,-54.09684
2018-09-25 23:00:00+00:00,334.213,11.46,13.13,47.84626,-54.09684
2018-09-25 23:10:00+00:00,340.2012,11.48,12.97,47.84626,-54.09684
2018-09-25 23:20:00+00:00,345.9562,11.49,13.05,47.84626,-54.09684
2018-09-25 23:30:00+00:00,347.4696,11.47,13.05,47.84626,-54.09684
2018-09-25 23:40:00+00:00,348.0247,11.47,13.13,47.84626,-54.09684
2018-09-25 23:50:00+00:00,350.8763,11.45,13.13,47.84626,-54.09684
